{"data":{"norad_id":67315,"intl_designator":"2026-002L","name":"STARLINK-36463","alt_names":[],"object_type":"PAYLOAD","status":"ACTIVE","operator":null,"country":"US","launch_date":"2026-01-04","launch_site_code":"AFETR","launch_vehicle":null,"mission":null,"orbit_class":"UNKNOWN","rcs_meters":null,"size_class":null,"mass_kg":null,"dimensions":null,"purposes":["comms"],"wikipedia_slug":null,"has_3d_model":false,"image_url":null,"decayed_at":null,"tle_current":{"epoch":"2026-09-19T20:03:48.226176Z","epoch_age_seconds":132832,"freshness":"FRESH","line1":"1 67315U 26002L   26262.83597484  .00013354  00000+0  49388-3 0  9998","line2":"2 67315  43.0009 308.6061 0001323 276.4424  83.6277 15.27583769 40833","mean_motion":15.27583769,"eccentricity":0.0001323,"inclination_deg":43.0009,"raan_deg":308.6061,"arg_perigee_deg":276.4424,"mean_anomaly_deg":83.6277,"bstar":0.00049388,"rev_number":4083,"period_min":94.266516129761,"perigee_km":482.13007689356,"apogee_km":483.94554374837,"semimajor_km":6861.174810321,"source":"CELESTRAK","updated_at":"2026-09-20T09:00:43.504689Z"}}}